Regional Weather Roundup
Issued by NWS Newport/Morehead, NC

Home | Current Version | Previous Version | Text Only | Print | Product List | Glossary On
Versions: 1 2 3 4 5 6 7 8 9 10 11 12 13 14 15 16 17 18 19 20 21 22 23 24 25 26 27 28 29 30 31 32 33 34 35 36 37 38 39 40 41 42 43 44 45 46 47 48 49 50
000
ASUS42 KMHX 231913
RWRMHX
WEATHER ROUNDUP FOR EASTERN NORTH CAROLINA
NATIONAL WEATHER SERVICE NEWPORT/MOREHEAD CITY NC
200 PM EST THU FEB 23 2017

NOTE: "FAIR" INDICATES FEW OR NO CLOUDS BELOW 12,000 FEET
WITH NO SIGNIFICANT WEATHER AND/OR OBSTRUCTIONS TO VISIBILITY

NCZ015>017-031-032-045>047-102-103-232000-
NORTH COAST

CITY           SKY/WX    TMP DP  RH WIND       PRES   REMARKS
EDENTON        PTSUNNY   73  54  52 SE7       29.93S
ELIZABETH CITY MOSUNNY   68  55  63 SE13      29.93F
KITTY HAWK     NOT AVBL
MANTEO         CLOUDY    66  55  67 SE7       29.94F

$$

NCZ045>047-081-094-103-104-232000-
CENTRAL COAST

CITY           SKY/WX    TMP DP  RH WIND       PRES   REMARKS
FRISCO         PTSUNNY   72  57  59 VRB3      29.93F

$$

NCZ095-097-098-100-101-232000-
SOUTHERN COAST

CITY           SKY/WX    TMP DP  RH WIND       PRES   REMARKS
BEAUFORT       PTSUNNY   72  59  63 E8        29.91F
CEDAR ISLAND   NOT AVBL
JACKSONVILLE   MOSUNNY   74  57  55 E13       29.89F
PINEY ISLAND   MOCLDY   N/A N/A N/A NE8       29.92F
WILMINGTON     PTSUNNY   73  57  57 SE13G20   29.89F


$$

NCZ011>013-027>030-043-044-078>080-089-090>093-098-232000-
COASTAL PLAIN

CITY           SKY/WX    TMP DP  RH WIND       PRES   REMARKS
AHOSKIE          N/A     73  51  46 S9        29.91F
CLINTON        MOSUNNY   74  56  52 E7        29.89F
ELIZABETHTOWN  PTSUNNY   73  55  52 E7        29.88F
GOLDSBORO      MOSUNNY   74  51  44 E9        29.87F
GREENVILLE     PTSUNNY   75  52  43 SE7       29.93F
HAVELOCK       PTSUNNY   73  57  57 NE15      29.91F
KENANSVILLE    PTSUNNY   72  52  49 SE9       29.89F
KINSTON        PTSUNNY   73  50  43 E6        29.90F
NEW BERN       MOSUNNY   73  56  54 E10       29.91F HAZE
RICHLANDS      SUNNY     74  53  48 E10       29.89F
ROCKY MOUNT    PTSUNNY   74  52  46 VRB7      29.89F
WASHINGTON     CLOUDY    73  54  51 SE7       29.91F
WHITEVILLE     CLOUDY    75  56  50 E8        29.86F

$$

AMZ130-135-150-152-154-156-158-170-250-252-270-ANZ085-086-088-633-658-670-232000-
MARINE OBSERVATIONS

STATION/POSITION TIME  TEMP    WIND        PRES    WAVE   SWELL
                       AIR SEA DIR/SP/G            HT/PER HT/PER
                 (UTC) (F)     (DEG/KT/KT) (MB)    (FT/S) (FT/S)
CHESAPEAKE LIGHT NOT AVBL
64 E VA BEACH    1850   60 55  120/  4/  6 1013.9    3/12   3/12
DUCK             1848   58 49  120/  5/  6 1013.4
2 E DUCK         1900      52                N/A     3/11   2/11
OREGON INLET     1842   59 55   60/  4/  6 1013.8
13E OREGON INLT  NOT AVBL
HATTERAS CG      1848   63 61  330/  5/  6 1013.3
DIAMOND BUOY     1850   70 73  140/ 12/ 16 1013.3    5/ 6   3/ 6
CAPE LOOKOUT     1900   66     130/ 12/ 13 1012.4
BEAUFORT LAB     1848   69 55  120/  5/  7 1011.9
30 SE NEW RVR IN 1808   68     160/ 12/ 16 1012.9
30 SE NEW RVR IN 1843      69                N/A     5/ 6   2/11
27 SE WRIGHTSVLE 1808   68 66  120/ 12/ 16 1012.7
5 SE WRIGHTSVLE  1808   60 58   50/  8/ 12 1012.6
225 S CAPE HAT   1850   69 70  100/ 21/ 25 1010.4    8/ 7   3/11
41 SE CHARLESTON 1750   71 69   80/ 16/ 17 1009.7    8/ 8   7/ 8

$$




USA.gov is the U.S. government's official web portal to all federal, state and local government web resources and services.